Location: Berlin
(52.5170°N, 13.4000°E)
Time: 13:38:26
(UTC+02:00)

ISS - Visible Passes

Search period start: 23 July 2018 00:00
Search period end: 02 August 2018 00:00
Orbit: 402 x 408 km, 51.6° (Epoch: 23 July)

Date Brightness Start Highest point End Pass type
(mag) Time Alt. Az. Time Alt. Az. Time Alt. Az.
23 Jul -4.0 01:16:09 10° W 01:19:26 67° SSW 01:20:53 30° ESE visible
23 Jul -1.6 02:52:49 10° W 02:53:23 13° W 02:53:23 13° W visible
23 Jul -3.8 22:47:42 10° WSW 22:50:56 59° SSE 22:54:11 10° E visible
24 Jul -4.0 00:24:03 10° W 00:27:21 76° S 00:29:12 24° ESE visible
24 Jul -2.0 02:00:35 10° W 02:01:47 19° W 02:01:47 19° W visible
24 Jul -3.5 21:55:44 10° SW 21:58:53 45° SSE 22:02:03 10° E visible
24 Jul -4.0 23:31:56 10° W 23:35:14 78° S 23:38:12 12° E visible
25 Jul -3.1 01:08:24 10° W 01:10:50 39° WSW 01:10:50 39° WSW visible
25 Jul -3.9 22:39:49 10° WSW 22:43:06 74° S 22:46:23 10° E visible
26 Jul -3.9 00:16:16 10° W 00:19:31 62° SSW 00:20:04 52° SE visible
26 Jul -3.8 21:47:44 10° WSW 21:50:59 63° SSE 21:54:15 10° E visible
26 Jul -3.9 23:24:07 10° W 23:27:24 73° S 23:29:24 22° ESE visible
27 Jul -2.0 01:00:41 10° W 01:02:01 20° WSW 01:02:01 20° WSW visible
27 Jul -3.9 22:31:58 10° W 22:35:15 78° S 22:38:32 10° E visible
28 Jul -3.4 00:08:26 10° W 00:11:24 43° SSW 00:11:24 43° SSW visible
28 Jul -3.7 23:16:15 10° W 23:19:29 57° SSW 23:20:49 31° SE visible
29 Jul -1.2 00:53:06 10° W 00:53:27 12° WSW 00:53:27 12° WSW visible
29 Jul -3.9 22:24:04 10° W 22:27:21 70° S 22:30:16 12° ESE visible
30 Jul -2.4 00:00:40 10° W 00:02:54 26° SW 00:02:54 26° SW visible
30 Jul -3.2 23:08:22 10° W 23:11:28 39° SSW 23:12:21 31° SSE visible
31 Jul -3.5 22:16:07 10° W 22:19:20 52° SSW 22:21:50 15° ESE visible
31 Jul -1.6 23:53:08 10° WSW 23:54:29 15° SW 23:54:29 15° SW visible
01 Aug -2.5 23:00:34 10° W 23:03:19 24° SSW 23:03:59 23° S visible
